Time,TemperatureF,DewpointF,PressureIn,WindDirection,WindDirectionDegrees,WindSpeedMPH,WindSpeedGustMPH,Humidity,HourlyPrecipIn,Conditions,Clouds,dailyrainin,SolarRadiationWatts/m^2,SoftwareType,DateUTC
2013-01-09 00:00:00,47.7,46.6,30.38,ESE,113,0.0,1.0,96,0.00,,,0.00,0.0,meteohub,2013-01-09 05:00:00,
2013-01-09 00:01:00,47.7,46.6,30.38,ESE,113,0.0,1.0,96,0.00,,,0.00,0.0,meteohub,2013-01-09 05:01:00,
2013-01-09 00:03:00,47.7,46.6,30.38,ESE,113,0.0,1.0,96,0.00,,,0.00,0.0,meteohub,2013-01-09 05:03:00,
2013-01-09 00:08:00,47.7,46.6,30.38,ESE,113,0.0,1.0,96,0.00,,,0.00,0.0,meteohub,2013-01-09 05:08:00,
2013-01-09 00:13:00,47.7,46.6,30.38,ESE,113,0.0,1.0,96,0.00,,,0.00,0.0,meteohub,2013-01-09 05:13:00,
2013-01-09 00:18:00,47.5,46.4,30.38,ESE,113,0.0,1.0,96,0.00,,,0.00,0.0,meteohub,2013-01-09 05:18:00,
2013-01-09 00:23:00,47.7,46.6,30.38,ESE,113,2.0,2.0,96,0.00,,,0.00,0.0,meteohub,2013-01-09 05:23:00,
2013-01-09 00:28:00,47.7,46.9,30.38,ESE,113,0.0,2.0,97,0.00,,,0.00,0.0,meteohub,2013-01-09 05:28:00,
2013-01-09 00:33:00,47.7,46.9,30.39,ESE,113,0.0,2.0,97,0.00,,,0.00,0.0,meteohub,2013-01-09 05:33:00,
2013-01-09 00:38:00,47.7,46.9,30.38,ESE,113,0.0,2.0,97,0.00,,,0.00,0.0,meteohub,2013-01-09 05:38:00,
2013-01-09 00:43:00,47.7,46.9,30.39,SSE,151,0.0,2.0,97,0.00,,,0.00,0.0,meteohub,2013-01-09 05:43:00,
2013-01-09 00:48:00,47.7,46.9,30.38,SSE,151,0.0,3.0,97,0.00,,,0.00,0.0,meteohub,2013-01-09 05:48:00,
2013-01-09 00:54:00,47.8,46.9,30.39,SSE,151,1.0,3.0,97,0.00,,,0.00,0.0,meteohub,2013-01-09 05:54:00,
2013-01-09 00:59:00,47.8,46.9,30.39,SSE,151,0.0,3.0,97,0.00,,,0.00,0.0,meteohub,2013-01-09 05:59:00,
2013-01-09 01:04:00,47.8,46.9,30.39,SSE,151,0.0,1.0,97,0.00,,,0.00,0.0,meteohub,2013-01-09 06:04:00,
2013-01-09 01:09:00,47.8,46.9,30.39,SSE,151,0.0,1.0,97,0.00,,,0.00,0.0,meteohub,2013-01-09 06:09:00,
2013-01-09 01:14:00,47.8,46.9,30.39,SSE,151,0.0,0.0,97,0.00,,,0.00,0.0,meteohub,2013-01-09 06:14:00,
2013-01-09 01:19:00,47.8,46.9,30.38,SSE,151,0.0,1.0,97,0.00,,,0.00,0.0,meteohub,2013-01-09 06:19:00,
2013-01-09 01:24:00,47.8,46.9,30.39,SSE,151,0.0,1.0,97,0.00,,,0.00,0.0,meteohub,2013-01-09 06:24:00,
2013-01-09 01:29:00,47.8,46.9,30.39,SSE,151,0.0,1.0,97,0.00,,,0.00,0.0,meteohub,2013-01-09 06:29:00,
2013-01-09 01:34:00,47.8,46.9,30.39,SSE,151,0.0,0.0,97,0.00,,,0.00,0.0,meteohub,2013-01-09 06:34:00,
2013-01-09 01:39:00,47.8,46.9,30.39,SSE,151,0.0,0.0,97,0.00,,,0.00,0.0,meteohub,2013-01-09 06:39:00,
2013-01-09 01:45:00,47.8,46.9,30.39,SSE,151,0.0,0.0,97,0.00,,,0.00,0.0,meteohub,2013-01-09 06:45:00,
2013-01-09 01:50:00,47.8,46.9,30.40,SSE,151,0.0,1.0,97,0.00,,,0.00,0.0,meteohub,2013-01-09 06:50:00,
2013-01-09 01:55:00,48.0,47.1,30.40,SSE,151,0.0,1.0,97,0.00,,,0.00,0.0,meteohub,2013-01-09 06:55:00,
2013-01-09 02:00:00,48.2,47.3,30.40,NE,46,1.0,2.0,97,0.00,,,0.00,0.0,meteohub,2013-01-09 07:00:00,
2013-01-09 02:05:00,48.6,47.7,30.39,NE,46,0.0,2.0,97,0.00,,,0.00,0.0,meteohub,2013-01-09 07:05:00,
2013-01-09 02:10:00,48.6,47.7,30.39,NE,50,1.0,2.0,97,0.00,,,0.00,0.0,meteohub,2013-01-09 07:10:00,
2013-01-09 02:15:00,48.7,48.2,30.39,NE,50,0.0,2.0,98,0.00,,,0.00,0.0,meteohub,2013-01-09 07:15:00,
2013-01-09 02:20:00,48.7,48.2,30.39,NE,50,0.0,2.0,98,0.00,,,0.00,0.0,meteohub,2013-01-09 07:20:00,
2013-01-09 02:25:00,48.7,47.8,30.39,NE,49,1.0,2.0,97,0.00,,,0.00,0.0,meteohub,2013-01-09 07:25:00,
2013-01-09 02:30:00,49.1,48.2,30.39,NE,49,0.0,2.0,97,0.00,,,0.00,0.0,meteohub,2013-01-09 07:30:00,
2013-01-09 02:36:00,49.1,48.6,30.40,NE,49,0.0,2.0,98,0.00,,,0.00,0.0,meteohub,2013-01-09 07:36:00,
2013-01-09 02:41:00,48.9,48.4,30.39,NE,49,0.0,2.0,98,0.00,,,0.00,0.0,meteohub,2013-01-09 07:41:00,
2013-01-09 02:46:00,49.1,48.6,30.39,NE,49,0.0,2.0,98,0.00,,,0.00,0.0,meteohub,2013-01-09 07:46:00,
2013-01-09 02:51:00,49.1,48.6,30.38,NE,49,0.0,2.0,98,0.00,,,0.00,0.0,meteohub,2013-01-09 07:51:00,
2013-01-09 02:56:00,49.3,48.7,30.39,NE,49,0.0,2.0,98,0.00,,,0.00,0.0,meteohub,2013-01-09 07:56:00,
2013-01-09 03:01:00,49.5,48.9,30.39,NE,49,0.0,2.0,98,0.00,,,0.00,0.0,meteohub,2013-01-09 08:01:00,
2013-01-09 03:06:00,49.5,48.9,30.39,NE,49,0.0,2.0,98,0.00,,,0.00,0.0,meteohub,2013-01-09 08:06:00,
2013-01-09 03:11:00,49.5,48.9,30.39,NE,49,0.0,1.0,98,0.00,,,0.00,0.0,meteohub,2013-01-09 08:11:00,
2013-01-09 03:16:00,49.6,49.1,30.38,NE,49,0.0,1.0,98,0.00,,,0.00,0.0,meteohub,2013-01-09 08:16:00,
2013-01-09 03:21:00,49.5,48.9,30.38,NE,49,0.0,1.0,98,0.00,,,0.00,0.0,meteohub,2013-01-09 08:21:00,
2013-01-09 03:26:00,49.3,48.7,30.38,NE,49,0.0,1.0,98,0.00,,,0.00,0.0,meteohub,2013-01-09 08:26:00,
2013-01-09 03:32:00,48.9,48.4,30.38,NE,49,0.0,1.0,98,0.00,,,0.00,0.0,meteohub,2013-01-09 08:32:00,
2013-01-09 03:37:00,49.1,48.6,30.38,NE,49,0.0,0.0,98,0.00,,,0.00,0.0,meteohub,2013-01-09 08:37:00,
2013-01-09 03:42:00,49.3,48.7,30.38,NE,49,0.0,0.0,98,0.00,,,0.00,0.0,meteohub,2013-01-09 08:42:00,
2013-01-09 03:47:00,49.1,48.6,30.38,NE,49,0.0,0.0,98,0.00,,,0.00,0.0,meteohub,2013-01-09 08:47:00,
2013-01-09 03:52:00,49.3,48.7,30.38,NE,49,0.0,0.0,98,0.00,,,0.00,0.0,meteohub,2013-01-09 08:52:00,
2013-01-09 03:57:00,48.9,48.4,30.38,NE,49,1.0,1.0,98,0.00,,,0.00,0.0,meteohub,2013-01-09 08:57:00,
2013-01-09 04:02:00,48.7,48.2,30.38,NE,49,0.0,1.0,98,0.00,,,0.00,0.0,meteohub,2013-01-09 09:02:00,
2013-01-09 04:07:00,48.7,48.2,30.38,NE,49,0.0,1.0,98,0.00,,,0.00,0.0,meteohub,2013-01-09 09:07:00,
2013-01-09 04:12:00,48.7,48.2,30.38,NE,49,0.0,1.0,98,0.00,,,0.00,0.0,meteohub,2013-01-09 09:12:00,
2013-01-09 04:17:00,49.5,48.9,30.37,NE,49,1.0,1.0,98,0.00,,,0.00,0.0,meteohub,2013-01-09 09:17:00,
2013-01-09 04:22:00,49.8,49.3,30.37,NE,49,0.0,1.0,98,0.00,,,0.00,0.0,meteohub,2013-01-09 09:22:00,
2013-01-09 04:27:00,49.8,49.3,30.37,NE,49,0.0,1.0,98,0.00,,,0.00,0.0,meteohub,2013-01-09 09:27:00,
2013-01-09 04:32:00,49.8,49.3,30.37,NE,49,0.0,1.0,98,0.00,,,0.00,0.0,meteohub,2013-01-09 09:32:00,
2013-01-09 04:37:00,49.6,49.1,30.36,NE,49,0.0,1.0,98,0.00,,,0.00,0.0,meteohub,2013-01-09 09:37:00,
2013-01-09 04:42:00,49.6,49.1,30.36,NE,49,0.0,1.0,98,0.00,,,0.00,0.0,meteohub,2013-01-09 09:42:00,
2013-01-09 04:47:00,49.6,49.1,30.36,NE,49,0.0,1.0,98,0.00,,,0.00,0.0,meteohub,2013-01-09 09:47:00,
2013-01-09 04:52:00,49.6,49.1,30.36,NE,49,0.0,0.0,98,0.00,,,0.00,0.0,meteohub,2013-01-09 09:52:00,
2013-01-09 04:57:00,49.5,48.9,30.36,NE,49,0.0,0.0,98,0.00,,,0.00,0.0,meteohub,2013-01-09 09:57:00,
2013-01-09 05:02:00,49.3,48.7,30.36,NE,49,1.0,0.0,98,0.00,,,0.00,0.0,meteohub,2013-01-09 10:02:00,
2013-01-09 05:07:00,49.5,48.9,30.36,WNW,299,0.0,2.0,98,0.00,,,0.00,0.0,meteohub,2013-01-09 10:07:00,
2013-01-09 05:12:00,49.5,48.9,30.36,WNW,299,0.0,4.0,98,0.00,,,0.00,0.0,meteohub,2013-01-09 10:12:00,
2013-01-09 05:17:00,49.5,48.9,30.36,WNW,299,0.0,4.0,98,0.00,,,0.00,0.0,meteohub,2013-01-09 10:17:00,
2013-01-09 05:22:00,49.5,48.9,30.37,WNW,299,1.0,2.0,98,0.00,,,0.00,0.0,meteohub,2013-01-09 10:22:00,
2013-01-09 05:27:00,49.5,48.9,30.37,WNW,299,2.0,2.0,98,0.00,,,0.00,0.0,meteohub,2013-01-09 10:27:00,
2013-01-09 05:32:00,49.5,48.9,30.37,WNW,299,0.0,2.0,98,0.00,,,0.00,0.0,meteohub,2013-01-09 10:32:00,
2013-01-09 05:37:00,49.6,49.1,30.37,WNW,299,0.0,2.0,98,0.00,,,0.00,0.0,meteohub,2013-01-09 10:37:00,
2013-01-09 05:42:00,49.6,49.1,30.37,WNW,288,0.0,2.0,98,0.00,,,0.00,0.0,meteohub,2013-01-09 10:42:00,
2013-01-09 05:47:00,49.6,49.1,30.37,WNW,288,0.0,2.0,98,0.00,,,0.00,0.0,meteohub,2013-01-09 10:47:00,
2013-01-09 05:52:00,49.6,49.1,30.37,WNW,288,0.0,2.0,98,0.00,,,0.00,0.0,meteohub,2013-01-09 10:52:00,
2013-01-09 05:57:00,49.6,49.1,30.38,WNW,288,0.0,1.0,98,0.00,,,0.00,0.0,meteohub,2013-01-09 10:57:00,
2013-01-09 06:02:00,49.6,49.1,30.37,WNW,288,0.0,2.0,98,0.00,,,0.00,0.0,meteohub,2013-01-09 11:02:00,
2013-01-09 06:07:00,49.6,49.1,30.38,WNW,288,0.0,2.0,98,0.00,,,0.00,0.0,meteohub,2013-01-09 11:07:00,
2013-01-09 06:12:00,49.6,49.1,30.37,WNW,288,0.0,2.0,98,0.00,,,0.00,0.0,meteohub,2013-01-09 11:12:00,
2013-01-09 06:17:00,49.6,49.1,30.37,WNW,288,0.0,1.0,98,0.00,,,0.00,0.0,meteohub,2013-01-09 11:17:00,
2013-01-09 06:22:00,49.8,49.3,30.37,NW,321,0.0,1.0,98,0.00,,,0.00,0.0,meteohub,2013-01-09 11:22:00,
2013-01-09 06:27:00,50.0,49.5,30.37,NW,321,0.0,2.0,98,0.00,,,0.00,0.0,meteohub,2013-01-09 11:27:00,
2013-01-09 06:32:00,50.2,49.6,30.37,NNE,24,0.0,2.0,98,0.00,,,0.00,0.0,meteohub,2013-01-09 11:32:00,
2013-01-09 06:37:00,49.8,49.3,30.37,NNE,24,0.0,3.0,98,0.00,,,0.00,0.0,meteohub,2013-01-09 11:37:00,
2013-01-09 06:42:00,49.8,49.3,30.38,NNE,24,0.0,3.0,98,0.00,,,0.00,0.0,meteohub,2013-01-09 11:42:00,
2013-01-09 06:47:00,49.8,49.3,30.38,NNE,24,2.0,3.0,98,0.00,,,0.00,0.0,meteohub,2013-01-09 11:47:00,
2013-01-09 06:52:00,49.8,49.3,30.38,NNE,24,0.0,2.0,98,0.00,,,0.00,0.0,meteohub,2013-01-09 11:52:00,
2013-01-09 06:57:00,50.0,49.5,30.38,NNE,24,2.0,2.0,98,0.00,,,0.00,0.0,meteohub,2013-01-09 11:57:00,
2013-01-09 07:02:00,50.2,49.6,30.38,NNE,24,0.0,3.0,98,0.00,,,0.00,0.0,meteohub,2013-01-09 12:02:00,
2013-01-09 07:07:00,50.0,49.5,30.38,NNE,24,0.0,3.0,98,0.00,,,0.00,0.0,meteohub,2013-01-09 12:07:00,
2013-01-09 07:12:00,50.2,49.6,30.39,NNE,24,1.0,3.0,98,0.00,,,0.00,0.0,meteohub,2013-01-09 12:12:00,
2013-01-09 07:17:00,50.2,49.6,30.38,East,87,3.0,3.0,98,0.00,,,0.00,0.0,meteohub,2013-01-09 12:17:00,
2013-01-09 07:22:00,50.4,49.8,30.39,NW,311,1.0,5.0,98,0.00,,,0.00,0.0,meteohub,2013-01-09 12:22:00,
2013-01-09 07:27:00,50.4,49.8,30.39,NW,311,0.0,5.0,98,0.00,,,0.00,0.0,meteohub,2013-01-09 12:27:00,
2013-01-09 07:32:00,50.7,50.2,30.39,NW,311,0.0,5.0,98,0.00,,,0.00,0.0,meteohub,2013-01-09 12:32:00,
2013-01-09 07:37:00,51.1,50.5,30.39,NW,304,0.0,3.0,98,0.00,,,0.00,0.0,meteohub,2013-01-09 12:37:00,
2013-01-09 07:42:00,51.1,50.5,30.39,NW,304,0.0,4.0,98,0.00,,,0.00,0.0,meteohub,2013-01-09 12:42:00,
2013-01-09 07:47:00,50.7,50.2,30.39,NW,304,0.0,4.0,98,0.00,,,0.00,0.0,meteohub,2013-01-09 12:47:00,
2013-01-09 07:52:00,50.5,50.0,30.39,NW,304,1.0,2.0,98,0.00,,,0.00,12.0,meteohub,2013-01-09 12:52:00,
2013-01-09 07:56:00,50.4,49.8,30.39,NW,304,1.0,2.0,98,0.00,,,0.00,11.0,meteohub,2013-01-09 12:56:00,
2013-01-09 08:02:00,50.7,50.2,30.40,NW,304,1.0,2.0,98,0.00,,,0.00,14.0,meteohub,2013-01-09 13:02:00,
2013-01-09 08:07:00,50.5,50.0,30.40,NW,304,0.0,2.0,98,0.00,,,0.00,12.0,meteohub,2013-01-09 13:07:00,
2013-01-09 08:12:00,50.2,49.6,30.40,NW,306,2.0,2.0,98,0.00,,,0.00,16.0,meteohub,2013-01-09 13:12:00,
2013-01-09 08:17:00,50.7,50.2,30.40,NW,323,1.0,3.0,98,0.00,,,0.00,28.0,meteohub,2013-01-09 13:17:00,
2013-01-09 08:22:00,51.3,50.7,30.41,NW,323,0.0,3.0,98,0.00,,,0.00,30.0,meteohub,2013-01-09 13:22:00,
2013-01-09 08:27:00,51.4,50.9,30.41,NW,323,0.0,3.0,98,0.00,,,0.00,42.0,meteohub,2013-01-09 13:27:00,
2013-01-09 08:32:00,51.6,51.1,30.41,NW,323,2.0,2.0,98,0.00,,,0.00,47.0,meteohub,2013-01-09 13:32:00,
2013-01-09 08:37:00,51.8,51.3,30.41,NW,323,0.0,3.0,98,0.00,,,0.00,53.0,meteohub,2013-01-09 13:37:00,
2013-01-09 08:42:00,52.0,51.1,30.41,NW,323,0.0,3.0,97,0.00,,,0.00,35.0,meteohub,2013-01-09 13:42:00,
2013-01-09 08:47:00,52.0,51.1,30.41,NW,323,0.0,3.0,97,0.00,,,0.00,32.0,meteohub,2013-01-09 13:47:00,
2013-01-09 08:52:00,51.8,50.7,30.41,NW,311,0.0,2.0,96,0.00,,,0.00,49.0,meteohub,2013-01-09 13:52:00,
2013-01-09 08:57:00,51.4,50.4,30.41,NW,311,1.0,2.0,96,0.00,,,0.00,60.0,meteohub,2013-01-09 13:57:00,
2013-01-09 09:02:00,50.9,49.8,30.42,NW,311,0.0,2.0,96,0.00,,,0.00,97.0,meteohub,2013-01-09 14:02:00,
2013-01-09 09:07:00,51.1,50.2,30.42,ENE,70,1.0,2.0,97,0.00,,,0.00,134.0,meteohub,2013-01-09 14:07:00,
2013-01-09 09:12:00,51.6,50.7,30.42,SSE,165,0.0,2.0,97,0.00,,,0.00,93.0,meteohub,2013-01-09 14:12:00,
2013-01-09 09:17:00,52.0,51.1,30.42,SSE,155,1.0,2.0,97,0.00,,,0.00,81.0,meteohub,2013-01-09 14:17:00,
2013-01-09 09:22:00,52.0,51.1,30.42,East,96,2.0,3.0,97,0.00,,,0.00,58.0,meteohub,2013-01-09 14:22:00,
2013-01-09 09:27:00,51.6,50.7,30.41,East,86,0.0,3.0,97,0.00,,,0.00,37.0,meteohub,2013-01-09 14:27:00,
2013-01-09 09:32:00,51.4,50.5,30.41,NE,51,2.0,3.0,97,0.00,,,0.00,30.0,meteohub,2013-01-09 14:32:00,
2013-01-09 09:37:00,51.3,50.4,30.41,South,175,1.0,3.0,97,0.00,,,0.00,32.0,meteohub,2013-01-09 14:37:00,
2013-01-09 09:42:00,51.1,50.2,30.41,ESE,109,2.0,3.0,97,0.00,,,0.00,40.0,meteohub,2013-01-09 14:42:00,
2013-01-09 09:47:00,50.9,50.0,30.42,ESE,110,0.0,3.0,97,0.00,,,0.00,32.0,meteohub,2013-01-09 14:47:00,
2013-01-09 09:52:00,50.9,50.0,30.42,ESE,109,2.0,3.0,97,0.00,,,0.00,26.0,meteohub,2013-01-09 14:52:00,
2013-01-09 09:57:00,50.9,50.0,30.42,ENE,58,0.0,3.0,97,0.00,,,0.00,14.0,meteohub,2013-01-09 14:57:00,
2013-01-09 10:02:00,51.1,50.5,30.43,ENE,70,0.0,3.0,98,0.00,,,0.00,7.0,meteohub,2013-01-09 15:02:00,
2013-01-09 10:07:00,50.9,50.4,30.43,ENE,70,0.0,3.0,98,0.00,,,0.00,7.0,meteohub,2013-01-09 15:07:00,
2013-01-09 10:12:00,51.1,50.5,30.42,NNW,346,1.0,3.0,98,0.00,,,0.00,16.0,meteohub,2013-01-09 15:12:00,
2013-01-09 10:17:00,51.4,50.9,30.43,NNE,29,0.0,6.0,98,0.00,,,0.00,16.0,meteohub,2013-01-09 15:17:00,
2013-01-09 10:22:00,51.6,51.1,30.43,ENE,64,0.0,6.0,98,0.00,,,0.00,23.0,meteohub,2013-01-09 15:22:00,
2013-01-09 10:27:00,52.0,51.4,30.43,ENE,64,2.0,6.0,98,0.00,,,0.00,16.0,meteohub,2013-01-09 15:27:00,
2013-01-09 10:32:00,52.2,51.6,30.43,ENE,64,0.0,3.0,98,0.00,,,0.00,16.0,meteohub,2013-01-09 15:32:00,
2013-01-09 10:37:00,52.3,51.8,30.43,ENE,64,1.0,3.0,98,0.00,,,0.00,16.0,meteohub,2013-01-09 15:37:00,
2013-01-09 10:42:00,52.3,51.4,30.43,NNE,17,2.0,2.0,97,0.00,,,0.00,14.0,meteohub,2013-01-09 15:42:00,
2013-01-09 10:47:00,52.5,51.6,30.43,NNE,17,0.0,4.0,97,0.00,,,0.00,18.0,meteohub,2013-01-09 15:47:00,
2013-01-09 10:52:00,52.5,51.6,30.43,ESE,119,3.0,4.0,97,0.00,,,0.00,18.0,meteohub,2013-01-09 15:52:00,
2013-01-09 10:57:00,52.7,51.8,30.43,ESE,117,1.0,4.0,97,0.00,,,0.00,19.0,meteohub,2013-01-09 15:57:00,
2013-01-09 11:02:00,52.7,51.8,30.43,ESE,117,0.0,4.0,97,0.00,,,0.00,16.0,meteohub,2013-01-09 16:02:00,
2013-01-09 11:07:00,52.9,52.0,30.43,ESE,119,1.0,4.0,97,0.00,,,0.00,21.0,meteohub,2013-01-09 16:07:00,
2013-01-09 11:12:00,53.1,52.0,30.43,ESE,111,2.0,2.0,96,0.00,,,0.00,26.0,meteohub,2013-01-09 16:12:00,
2013-01-09 11:17:00,53.2,52.2,30.42,SW,224,1.0,4.0,96,0.00,,,0.00,37.0,meteohub,2013-01-09 16:17:00,
2013-01-09 11:22:00,53.2,52.2,30.42,SW,224,0.0,4.0,96,0.00,,,0.00,37.0,meteohub,2013-01-09 16:22:00,
2013-01-09 11:27:00,53.4,52.3,30.42,ESE,116,1.0,4.0,96,0.00,,,0.00,46.0,meteohub,2013-01-09 16:27:00,
2013-01-09 11:32:00,53.6,52.5,30.42,SSW,209,3.0,3.0,96,0.00,,,0.00,53.0,meteohub,2013-01-09 16:32:00,
2013-01-09 11:37:00,53.8,52.3,30.42,WNW,290,1.0,4.0,95,0.00,,,0.00,58.0,meteohub,2013-01-09 16:37:00,
2013-01-09 11:42:00,54.1,52.7,30.42,NNW,327,0.0,4.0,95,0.00,,,0.00,40.0,meteohub,2013-01-09 16:42:00,
2013-01-09 11:47:00,54.1,52.5,30.41,WNW,296,1.0,4.0,94,0.00,,,0.00,26.0,meteohub,2013-01-09 16:47:00,
2013-01-09 11:52:00,54.1,52.5,30.41,WNW,285,1.0,4.0,94,0.00,,,0.00,30.0,meteohub,2013-01-09 16:52:00,
2013-01-09 11:57:00,54.0,52.3,30.41,WSW,251,0.0,3.0,94,0.00,,,0.00,44.0,meteohub,2013-01-09 16:57:00,
2013-01-09 12:02:00,54.0,52.3,30.41,NW,324,2.0,8.0,94,0.00,,,0.00,35.0,meteohub,2013-01-09 17:02:00,
2013-01-09 12:07:00,54.1,52.5,30.40,West,276,2.0,8.0,94,0.00,,,0.00,42.0,meteohub,2013-01-09 17:07:00,
2013-01-09 12:12:00,54.1,52.5,30.40,West,269,3.0,5.0,94,0.00,,,0.00,51.0,meteohub,2013-01-09 17:12:00,
2013-01-09 12:17:00,54.3,52.7,30.40,SW,235,1.0,5.0,94,0.00,,,0.00,54.0,meteohub,2013-01-09 17:17:00,
2013-01-09 12:22:00,54.3,52.7,30.40,SW,224,1.0,5.0,94,0.00,,,0.00,72.0,meteohub,2013-01-09 17:22:00,
2013-01-09 12:27:00,54.7,53.1,30.40,SSW,207,2.0,4.0,94,0.00,,,0.00,70.0,meteohub,2013-01-09 17:27:00,
2013-01-09 12:32:00,54.9,52.9,30.39,SW,226,2.0,5.0,93,0.00,,,0.00,65.0,meteohub,2013-01-09 17:32:00,
2013-01-09 12:37:00,54.9,52.9,30.39,SSW,211,2.0,5.0,93,0.00,,,0.00,58.0,meteohub,2013-01-09 17:37:00,
2013-01-09 12:42:00,54.9,52.9,30.39,SSW,211,0.0,5.0,93,0.00,,,0.00,63.0,meteohub,2013-01-09 17:42:00,
2013-01-09 12:47:00,54.9,52.5,30.38,ESE,119,0.0,3.0,92,0.00,,,0.00,69.0,meteohub,2013-01-09 17:47:00,
2013-01-09 12:52:00,54.9,52.9,30.38,SE,144,0.0,4.0,93,0.00,,,0.00,90.0,meteohub,2013-01-09 17:52:00,
2013-01-09 12:57:00,54.9,52.9,30.37,SE,144,2.0,4.0,93,0.00,,,0.00,63.0,meteohub,2013-01-09 17:57:00,
2013-01-09 13:02:00,54.3,52.3,30.37,SE,130,1.0,4.0,93,0.00,,,0.00,56.0,meteohub,2013-01-09 18:02:00,
2013-01-09 13:07:00,54.1,52.5,30.37,SE,130,1.0,3.0,94,0.00,,,0.00,39.0,meteohub,2013-01-09 18:07:00,
2013-01-09 13:12:00,54.1,52.5,30.37,SE,130,2.0,2.0,94,0.00,,,0.00,33.0,meteohub,2013-01-09 18:12:00,
2013-01-09 13:17:00,54.0,52.3,30.37,SE,130,1.0,2.0,94,0.00,,,0.00,33.0,meteohub,2013-01-09 18:17:00,
2013-01-09 13:22:00,54.0,52.5,30.37,SE,130,0.0,2.0,95,0.00,,,0.00,28.0,meteohub,2013-01-09 18:22:00,
2013-01-09 13:27:00,53.8,52.3,30.37,SE,130,0.0,2.0,95,0.00,,,0.00,47.0,meteohub,2013-01-09 18:27:00,
2013-01-09 13:32:00,53.8,52.3,30.38,SE,130,0.0,1.0,95,0.00,,,0.00,33.0,meteohub,2013-01-09 18:32:00,
2013-01-09 13:37:00,53.8,52.3,30.37,SE,130,0.0,1.0,95,0.00,,,0.00,51.0,meteohub,2013-01-09 18:37:00,
2013-01-09 13:41:00,54.0,52.5,30.37,SE,130,0.0,1.0,95,0.00,,,0.00,84.0,meteohub,2013-01-09 18:41:00,
2013-01-09 13:42:00,54.0,52.5,30.37,SE,130,1.0,1.0,95,0.00,,,0.00,83.0,meteohub,2013-01-09 18:42:00,
2013-01-09 13:44:00,54.0,52.5,30.37,SE,130,0.0,1.0,95,0.00,,,0.00,74.0,meteohub,2013-01-09 18:44:00,
2013-01-09 13:45:00,54.0,52.5,30.37,SE,130,0.0,2.0,95,0.00,,,0.00,69.0,meteohub,2013-01-09 18:45:00,
2013-01-09 13:48:00,54.0,52.5,30.37,SE,130,0.0,2.0,95,0.00,,,0.00,44.0,meteohub,2013-01-09 18:48:00,
2013-01-09 13:49:00,54.0,52.5,30.37,SE,130,0.0,2.0,95,0.00,,,0.00,39.0,meteohub,2013-01-09 18:49:00,
2013-01-09 13:54:00,54.0,52.3,30.37,SE,130,1.0,2.0,94,0.00,,,0.00,39.0,meteohub,2013-01-09 18:54:00,
2013-01-09 13:59:00,53.8,52.3,30.37,SE,130,0.0,2.0,95,0.00,,,0.00,51.0,meteohub,2013-01-09 18:59:00,
2013-01-09 14:04:00,54.0,52.5,30.38,SE,130,0.0,2.0,95,0.00,,,0.00,39.0,meteohub,2013-01-09 19:04:00,
2013-01-09 14:10:00,54.0,52.5,30.37,SE,130,0.0,2.0,95,0.00,,,0.00,39.0,meteohub,2013-01-09 19:10:00,
2013-01-09 14:15:00,54.0,52.5,30.37,SE,130,0.0,2.0,95,0.00,,,0.00,47.0,meteohub,2013-01-09 19:15:00,
2013-01-09 14:20:00,54.1,52.5,30.37,SE,130,0.0,0.0,94,0.00,,,0.00,44.0,meteohub,2013-01-09 19:20:00,
2013-01-09 14:25:00,54.1,52.7,30.37,SE,130,0.0,0.0,95,0.00,,,0.00,42.0,meteohub,2013-01-09 19:25:00,
2013-01-09 14:30:00,54.0,52.5,30.37,SE,130,0.0,1.0,95,0.00,,,0.00,49.0,meteohub,2013-01-09 19:30:00,
2013-01-09 14:35:00,53.8,52.3,30.37,SE,130,1.0,1.0,95,0.00,,,0.00,49.0,meteohub,2013-01-09 19:35:00,
2013-01-09 14:40:00,53.8,52.3,30.37,SE,130,0.0,2.0,95,0.00,,,0.00,47.0,meteohub,2013-01-09 19:40:00,
2013-01-09 14:45:00,53.8,52.3,30.37,SE,130,0.0,2.0,95,0.00,,,0.00,40.0,meteohub,2013-01-09 19:45:00,
2013-01-09 14:50:00,53.8,52.3,30.37,SE,130,0.0,2.0,95,0.00,,,0.00,47.0,meteohub,2013-01-09 19:50:00,
2013-01-09 14:55:00,53.8,52.3,30.37,SE,130,0.0,1.0,95,0.00,,,0.00,46.0,meteohub,2013-01-09 19:55:00,
2013-01-09 15:00:00,54.0,52.3,30.37,SE,130,0.0,0.0,94,0.00,,,0.00,54.0,meteohub,2013-01-09 20:00:00,
2013-01-09 15:06:00,54.1,52.5,30.37,ESE,109,0.0,1.0,94,0.00,,,0.00,58.0,meteohub,2013-01-09 20:06:00,
2013-01-09 15:11:00,54.1,52.5,30.37,ESE,109,0.0,1.0,94,0.00,,,0.00,56.0,meteohub,2013-01-09 20:11:00,
2013-01-09 15:16:00,54.1,52.5,30.38,ESE,109,0.0,1.0,94,0.00,,,0.00,49.0,meteohub,2013-01-09 20:16:00,
2013-01-09 15:21:00,54.1,52.5,30.38,ESE,109,0.0,1.0,94,0.00,,,0.00,53.0,meteohub,2013-01-09 20:21:00,
2013-01-09 15:26:00,54.1,52.5,30.37,ESE,109,0.0,1.0,94,0.00,,,0.00,70.0,meteohub,2013-01-09 20:26:00,
2013-01-09 15:31:00,54.3,52.7,30.37,ESE,109,0.0,1.0,94,0.00,,,0.00,67.0,meteohub,2013-01-09 20:31:00,
2013-01-09 15:36:00,54.3,52.7,30.37,ESE,109,0.0,1.0,94,0.00,,,0.00,63.0,meteohub,2013-01-09 20:36:00,
2013-01-09 15:41:00,54.3,52.7,30.37,ESE,109,0.0,0.0,94,0.00,,,0.00,58.0,meteohub,2013-01-09 20:41:00,
2013-01-09 15:46:00,54.3,52.3,30.37,ESE,109,0.0,0.0,93,0.00,,,0.00,53.0,meteohub,2013-01-09 20:46:00,
2013-01-09 15:51:00,54.3,52.3,30.38,ESE,109,0.0,0.0,93,0.00,,,0.00,58.0,meteohub,2013-01-09 20:51:00,
2013-01-09 15:56:00,54.3,52.3,30.38,ESE,109,0.0,0.0,93,0.00,,,0.00,60.0,meteohub,2013-01-09 20:56:00,
2013-01-09 16:01:00,54.3,52.3,30.38,ESE,109,0.0,0.0,93,0.00,,,0.00,49.0,meteohub,2013-01-09 21:01:00,
2013-01-09 16:06:00,54.3,52.3,30.38,ESE,109,0.0,0.0,93,0.00,,,0.00,39.0,meteohub,2013-01-09 21:06:00,
2013-01-09 16:11:00,54.1,52.2,30.38,ESE,109,0.0,0.0,93,0.00,,,0.00,40.0,meteohub,2013-01-09 21:11:00,
2013-01-09 16:17:00,54.1,52.2,30.37,ESE,109,0.0,0.0,93,0.00,,,0.00,42.0,meteohub,2013-01-09 21:17:00,
2013-01-09 16:22:00,54.1,52.2,30.38,ESE,109,0.0,0.0,93,0.00,,,0.00,35.0,meteohub,2013-01-09 21:22:00,
2013-01-09 16:27:00,54.1,52.2,30.38,ESE,109,0.0,0.0,93,0.00,,,0.00,30.0,meteohub,2013-01-09 21:27:00,
2013-01-09 16:32:00,54.1,52.2,30.38,ESE,109,0.0,0.0,93,0.00,,,0.00,47.0,meteohub,2013-01-09 21:32:00,
2013-01-09 16:37:00,54.3,52.3,30.38,ESE,109,0.0,0.0,93,0.00,,,0.00,53.0,meteohub,2013-01-09 21:37:00,
2013-01-09 16:42:00,54.3,52.3,30.38,ESE,109,0.0,0.0,93,0.00,,,0.00,39.0,meteohub,2013-01-09 21:42:00,
2013-01-09 16:47:00,54.5,52.5,30.37,ESE,109,1.0,0.0,93,0.00,,,0.00,33.0,meteohub,2013-01-09 21:47:00,
2013-01-09 16:52:00,54.7,52.3,30.37,ESE,109,1.0,2.0,92,0.00,,,0.00,26.0,meteohub,2013-01-09 21:52:00,
2013-01-09 16:57:00,54.9,52.5,30.37,ESE,109,0.0,3.0,92,0.00,,,0.00,23.0,meteohub,2013-01-09 21:57:00,
2013-01-09 17:02:00,54.9,52.5,30.37,ESE,109,0.0,3.0,92,0.00,,,0.00,18.0,meteohub,2013-01-09 22:02:00,
2013-01-09 17:07:00,54.9,52.5,30.38,ESE,109,0.0,2.0,92,0.00,,,0.00,12.0,meteohub,2013-01-09 22:07:00,
2013-01-09 17:12:00,54.5,52.2,30.38,ESE,109,0.0,1.0,92,0.00,,,0.00,9.0,meteohub,2013-01-09 22:12:00,
2013-01-09 17:17:00,54.1,51.8,30.38,ESE,109,0.0,1.0,92,0.00,,,0.00,7.0,meteohub,2013-01-09 22:17:00,
2013-01-09 17:22:00,54.0,52.0,30.38,ESE,109,0.0,1.0,93,0.00,,,0.00,5.0,meteohub,2013-01-09 22:22:00,
2013-01-09 17:27:00,54.0,51.6,30.38,ESE,109,0.0,1.0,92,0.00,,,0.00,0.0,meteohub,2013-01-09 22:27:00,
2013-01-09 17:32:00,54.1,51.8,30.38,ESE,107,0.0,2.0,92,0.00,,,0.00,0.0,meteohub,2013-01-09 22:32:00,
2013-01-09 17:37:00,54.0,51.6,30.38,ESE,107,1.0,2.0,92,0.00,,,0.00,0.0,meteohub,2013-01-09 22:37:00,
2013-01-09 17:42:00,54.1,51.8,30.38,ESE,107,1.0,2.0,92,0.00,,,0.00,0.0,meteohub,2013-01-09 22:42:00,
2013-01-09 17:47:00,54.3,52.0,30.38,ESE,107,1.0,2.0,92,0.00,,,0.00,0.0,meteohub,2013-01-09 22:47:00,
2013-01-09 17:52:00,54.5,52.2,30.38,ESE,107,0.0,2.0,92,0.00,,,0.00,0.0,meteohub,2013-01-09 22:52:00,
2013-01-09 17:57:00,54.3,52.0,30.39,ESE,107,0.0,2.0,92,0.00,,,0.00,0.0,meteohub,2013-01-09 22:57:00,
2013-01-09 18:02:00,54.1,51.8,30.39,ESE,107,0.0,2.0,92,0.00,,,0.00,0.0,meteohub,2013-01-09 23:02:00,
2013-01-09 18:07:00,54.1,51.8,30.39,ESE,107,1.0,1.0,92,0.00,,,0.00,0.0,meteohub,2013-01-09 23:07:00,
2013-01-09 18:12:00,54.1,51.8,30.39,ESE,107,0.0,1.0,92,0.00,,,0.00,0.0,meteohub,2013-01-09 23:12:00,
2013-01-09 18:17:00,54.3,52.0,30.39,ESE,107,0.0,1.0,92,0.00,,,0.00,0.0,meteohub,2013-01-09 23:17:00,
2013-01-09 18:22:00,54.5,52.2,30.38,ESE,107,1.0,1.0,92,0.00,,,0.00,0.0,meteohub,2013-01-09 23:22:00,
2013-01-09 18:27:00,54.7,52.3,30.38,ESE,107,1.0,2.0,92,0.00,,,0.00,0.0,meteohub,2013-01-09 23:27:00,
2013-01-09 18:32:00,54.7,52.3,30.38,ESE,107,0.0,2.0,92,0.00,,,0.00,0.0,meteohub,2013-01-09 23:32:00,
2013-01-09 18:37:00,54.9,52.3,30.38,ESE,107,0.0,2.0,91,0.00,,,0.00,0.0,meteohub,2013-01-09 23:37:00,
2013-01-09 18:42:00,54.9,52.3,30.38,ESE,107,1.0,2.0,91,0.00,,,0.00,0.0,meteohub,2013-01-09 23:42:00,
2013-01-09 18:47:00,54.7,52.2,30.38,ESE,107,0.0,2.0,91,0.00,,,0.00,0.0,meteohub,2013-01-09 23:47:00,
2013-01-09 18:52:00,54.7,52.2,30.38,ESE,107,1.0,2.0,91,0.00,,,0.00,0.0,meteohub,2013-01-09 23:52:00,
2013-01-09 18:57:00,54.7,52.2,30.38,ESE,107,0.0,2.0,91,0.00,,,0.00,0.0,meteohub,2013-01-09 23:57:00,
2013-01-09 19:02:00,54.9,52.3,30.38,ESE,107,1.0,2.0,91,0.00,,,0.00,0.0,meteohub,2013-01-10 00:02:00,
2013-01-09 19:07:00,55.0,52.5,30.38,ESE,107,1.0,2.0,91,0.00,,,0.00,0.0,meteohub,2013-01-10 00:07:00,
2013-01-09 19:12:00,55.2,52.3,30.37,NE,37,2.0,3.0,90,0.00,,,0.00,0.0,meteohub,2013-01-10 00:12:00,
2013-01-09 19:17:00,55.4,52.5,30.37,NNE,17,1.0,3.0,90,0.00,,,0.00,0.0,meteohub,2013-01-10 00:17:00,
2013-01-09 19:22:00,55.6,52.3,30.37,NNE,17,0.0,3.0,89,0.00,,,0.00,0.0,meteohub,2013-01-10 00:22:00,
2013-01-09 19:27:00,55.6,52.3,30.37,NNE,17,1.0,3.0,89,0.00,,,0.00,0.0,meteohub,2013-01-10 00:27:00,
2013-01-09 19:32:00,55.6,52.3,30.37,NNE,17,2.0,3.0,89,0.00,,,0.00,0.0,meteohub,2013-01-10 00:32:00,
2013-01-09 19:37:00,55.6,52.3,30.37,NNE,16,0.0,3.0,89,0.00,,,0.00,0.0,meteohub,2013-01-10 00:37:00,
2013-01-09 19:42:00,55.6,52.3,30.37,NNE,16,1.0,3.0,89,0.00,,,0.00,0.0,meteohub,2013-01-10 00:42:00,
2013-01-09 19:47:00,55.8,52.3,30.37,NNE,16,1.0,3.0,88,0.00,,,0.00,0.0,meteohub,2013-01-10 00:47:00,
2013-01-09 19:52:00,56.1,52.3,30.37,NNE,16,1.0,2.0,87,0.00,,,0.00,0.0,meteohub,2013-01-10 00:52:00,
2013-01-09 19:57:00,55.2,51.8,30.37,NNE,17,0.0,2.0,88,0.00,,,0.00,0.0,meteohub,2013-01-10 00:57:00,
2013-01-09 20:02:00,54.3,51.4,30.37,NNE,17,1.0,2.0,90,0.00,,,0.00,0.0,meteohub,2013-01-10 01:02:00,
2013-01-09 20:07:00,54.0,51.6,30.38,NNE,17,0.0,2.0,92,0.00,,,0.00,0.0,meteohub,2013-01-10 01:07:00,
2013-01-09 20:12:00,54.1,51.6,30.38,NNE,17,1.0,1.0,91,0.00,,,0.00,0.0,meteohub,2013-01-10 01:12:00,
2013-01-09 20:17:00,54.3,51.8,30.37,NNE,17,0.0,2.0,91,0.00,,,0.00,0.0,meteohub,2013-01-10 01:17:00,
2013-01-09 20:23:00,54.3,51.8,30.37,NNE,17,1.0,2.0,91,0.00,,,0.00,0.0,meteohub,2013-01-10 01:23:00,
2013-01-09 20:28:00,54.7,52.2,30.37,NNE,17,0.0,2.0,91,0.00,,,0.00,0.0,meteohub,2013-01-10 01:28:00,
2013-01-09 20:33:00,54.9,52.0,30.38,NNE,17,0.0,2.0,90,0.00,,,0.00,0.0,meteohub,2013-01-10 01:33:00,
2013-01-09 20:38:00,54.9,52.0,30.38,ENE,61,0.0,2.0,90,0.00,,,0.00,0.0,meteohub,2013-01-10 01:38:00,
2013-01-09 20:43:00,54.7,52.2,30.38,ENE,61,0.0,2.0,91,0.00,,,0.00,0.0,meteohub,2013-01-10 01:43:00,
2013-01-09 20:48:00,54.3,51.8,30.38,ENE,61,0.0,2.0,91,0.00,,,0.00,0.0,meteohub,2013-01-10 01:48:00,
2013-01-09 20:53:00,54.1,51.8,30.38,ENE,61,0.0,1.0,92,0.00,,,0.00,0.0,meteohub,2013-01-10 01:53:00,
2013-01-09 20:58:00,54.3,51.8,30.39,ENE,61,0.0,2.0,91,0.00,,,0.00,0.0,meteohub,2013-01-10 01:58:00,
2013-01-09 21:03:00,54.5,52.0,30.39,ENE,61,1.0,2.0,91,0.00,,,0.00,0.0,meteohub,2013-01-10 02:03:00,
2013-01-09 21:08:00,54.3,51.8,30.39,ENE,61,2.0,2.0,91,0.00,,,0.00,0.0,meteohub,2013-01-10 02:08:00,
2013-01-09 21:14:00,54.0,51.6,30.39,ENE,61,2.0,2.0,92,0.00,,,0.00,0.0,meteohub,2013-01-10 02:14:00,
2013-01-09 21:19:00,53.8,51.4,30.39,ENE,61,1.0,3.0,92,0.00,,,0.00,0.0,meteohub,2013-01-10 02:19:00,
2013-01-09 21:24:00,53.8,51.4,30.39,ENE,60,1.0,3.0,92,0.00,,,0.00,0.0,meteohub,2013-01-10 02:24:00,
2013-01-09 21:29:00,54.0,51.6,30.39,ENE,61,0.0,3.0,92,0.00,,,0.00,0.0,meteohub,2013-01-10 02:29:00,
2013-01-09 21:34:00,54.5,52.0,30.39,ENE,60,0.0,3.0,91,0.00,,,0.00,0.0,meteohub,2013-01-10 02:34:00,
2013-01-09 21:39:00,54.7,52.2,30.39,ENE,61,0.0,3.0,91,0.00,,,0.00,0.0,meteohub,2013-01-10 02:39:00,
2013-01-09 21:44:00,54.7,51.8,30.40,ENE,61,0.0,2.0,90,0.00,,,0.00,0.0,meteohub,2013-01-10 02:44:00,
2013-01-09 21:49:00,54.7,51.8,30.40,ENE,60,0.0,2.0,90,0.00,,,0.00,0.0,meteohub,2013-01-10 02:49:00,
2013-01-09 21:54:00,54.9,52.0,30.40,ENE,61,0.0,1.0,90,0.00,,,0.00,0.0,meteohub,2013-01-10 02:54:00,
2013-01-09 21:59:00,54.9,52.0,30.40,ENE,61,0.0,1.0,90,0.00,,,0.00,0.0,meteohub,2013-01-10 02:59:00,
2013-01-09 22:04:00,54.7,51.8,30.40,ENE,60,1.0,0.0,90,0.00,,,0.00,0.0,meteohub,2013-01-10 03:04:00,
2013-01-09 22:10:00,54.5,52.0,30.40,ENE,61,0.0,2.0,91,0.00,,,0.00,0.0,meteohub,2013-01-10 03:10:00,
2013-01-09 22:15:00,54.3,51.8,30.40,ENE,60,0.0,2.0,91,0.00,,,0.00,0.0,meteohub,2013-01-10 03:15:00,
2013-01-09 22:20:00,54.1,51.6,30.40,ENE,60,1.0,3.0,91,0.00,,,0.00,0.0,meteohub,2013-01-10 03:20:00,
2013-01-09 22:25:00,54.1,51.6,30.41,ENE,61,1.0,3.0,91,0.00,,,0.00,0.0,meteohub,2013-01-10 03:25:00,
2013-01-09 22:30:00,53.8,51.3,30.41,ENE,61,1.0,2.0,91,0.00,,,0.00,0.0,meteohub,2013-01-10 03:30:00,
2013-01-09 22:35:00,53.8,51.4,30.41,ENE,61,1.0,2.0,92,0.00,,,0.00,0.0,meteohub,2013-01-10 03:35:00,
2013-01-09 22:40:00,53.4,51.1,30.41,ENE,60,0.0,2.0,92,0.00,,,0.00,0.0,meteohub,2013-01-10 03:40:00,
2013-01-09 22:45:00,53.4,51.4,30.41,ENE,60,0.0,2.0,93,0.00,,,0.00,0.0,meteohub,2013-01-10 03:45:00,
2013-01-09 22:50:00,53.4,51.4,30.41,ENE,61,0.0,2.0,93,0.00,,,0.00,0.0,meteohub,2013-01-10 03:50:00,
2013-01-09 22:55:00,53.6,51.6,30.41,ENE,60,0.0,2.0,93,0.00,,,0.00,0.0,meteohub,2013-01-10 03:55:00,
2013-01-09 23:01:00,53.6,51.3,30.41,ENE,61,1.0,2.0,92,0.00,,,0.00,0.0,meteohub,2013-01-10 04:01:00,
2013-01-09 23:06:00,54.0,51.6,30.41,ENE,60,1.0,2.0,92,0.00,,,0.00,0.0,meteohub,2013-01-10 04:06:00,
2013-01-09 23:11:00,53.4,51.1,30.41,ENE,60,2.0,3.0,92,0.00,,,0.00,0.0,meteohub,2013-01-10 04:11:00,
2013-01-09 23:16:00,53.2,51.3,30.41,ENE,60,1.0,3.0,93,0.00,,,0.00,0.0,meteohub,2013-01-10 04:16:00,
2013-01-09 23:21:00,53.2,51.3,30.41,ENE,60,1.0,2.0,93,0.00,,,0.00,0.0,meteohub,2013-01-10 04:21:00,
2013-01-09 23:26:00,53.1,51.1,30.41,NNE,23,3.0,3.0,93,0.00,,,0.00,0.0,meteohub,2013-01-10 04:26:00,
2013-01-09 23:31:00,53.8,51.4,30.41,NNE,13,1.0,3.0,92,0.00,,,0.00,0.0,meteohub,2013-01-10 04:31:00,
2013-01-09 23:36:00,53.4,51.1,30.41,NNE,13,0.0,3.0,92,0.00,,,0.00,0.0,meteohub,2013-01-10 04:36:00,
2013-01-09 23:41:00,53.1,51.1,30.41,NNE,13,1.0,3.0,93,0.00,,,0.00,0.0,meteohub,2013-01-10 04:41:00,
2013-01-09 23:46:00,52.9,50.9,30.42,NNE,13,0.0,3.0,93,0.00,,,0.00,0.0,meteohub,2013-01-10 04:46:00,
2013-01-09 23:52:00,52.7,50.7,30.42,NNE,13,1.0,3.0,93,0.00,,,0.00,0.0,meteohub,2013-01-10 04:52:00,
2013-01-09 23:57:00,52.3,50.4,30.42,NNE,13,1.0,3.0,93,0.00,,,0.00,0.0,meteohub,2013-01-10 04:57:00,